www.pogodaiklimat.ru

Погода и климат >> Архив погоды >> Гренландия >> Nuussuaataa


ПОГОДА в Nuussuaataa

  • Прогноз погоды в Nuussuaataa
  • Монитор погоды в Nuussuaataa

АРХИВ ПОГОДЫ в Nuussuaataa

Время (UTC), дата Ветер
(напр.,м/с)
 
Видим.   Явления Облачность Т
(С)
Тd
(С)
f
(%)
Тe
(С)
Тes
(С)
Комфортность P
(гПа)
Po
(гПа)
Тmin
(С)
Tmax
(С)
R
(мм)
R24
(мм)
S
(см)
01 18.06 С 7 н/о н/о +1.4 +1.4 100 -5 -5 1015.7 1012.4
02 18.06 С 6 н/о н/о +2.0 +2.0 100 -4 -4 1015.6 1012.3
03 18.06 СЗ 8 н/о н/о +3.0 +2.6 97 -4 -4 1015.2 1011.9
04 18.06 СЗ 8 н/о н/о +3.7 +2.3 91 -3 -3 1014.8 1011.5
05 18.06 СЗ 7 н/о н/о +2.2 +2.2 100 -5 -5 1014.6 1011.3
06 18.06 С 7 н/о н/о +2.3 +2.3 100 -4 -4 1014.1 1010.8
07 18.06 С 7 н/о н/о +2.3 +2.3 100 -4 -4 1014.2 1010.9
08 18.06 С 7 н/о н/о +2.3 +2.3 100 -4 -4 1014.3 1011.0
09 18.06 С 7 н/о н/о +2.5 +2.5 100 -4 -4 1014.1 1010.8
10 18.06 С 8 н/о н/о +2.7 +2.7 100 -4 -4 1014.0 1010.7
11 18.06 С 7 н/о н/о +2.8 +2.8 100 -4 -4 1013.6 1010.3
12 18.06 С 6 н/о н/о +3.2 +3.2 100 -3 -3 1013.5 1010.2
13 18.06 С 3 н/о н/о +3.6 +3.4 99 -1 -1 1013.8 1010.5
14 18.06 СЗ 6 н/о н/о +3.3 +3.3 100 -3 -3 1013.9 1010.6
15 18.06 С 7 н/о н/о +3.4 +3.4 100 -3 -3 1013.7 1010.4
16 18.06 СЗ 7 н/о н/о +3.4 +3.4 100 -3 -3 1013.7 1010.4
17 18.06 С 7 н/о н/о +3.7 +3.4 98 -2 -2 1013.6 1010.3
18 18.06 С 5 н/о н/о +3.7 +3.5 99 -2 -2 1013.6 1010.3
19 18.06 С 6 н/о н/о +3.6 +3.6 100 -2 -2 1013.6 1010.3
20 18.06 СЗ 7 н/о н/о +4.3 +3.7 96 -2 -2 1013.3 1010.0
21 18.06 С 6 н/о н/о +3.9 +3.7 99 -2 -2 1013.3 1010.0
22 18.06 С 5 н/о н/о +3.9 +3.7 99 -1 -1 1013.1 1009.8
23 18.06 СЗ 3 н/о н/о +4.7 +3.5 92 +1 +1 1013.2 1009.9
00 19.06 СЗ 5 н/о н/о +4.4 +3.8 96 -1 -1 1013.2 1009.9
01 19.06 С 4 н/о н/о +4.5 +3.3 92 0 0 1013.0 1009.7
02 19.06 ЮВ 1 н/о н/о +4.6 +3.2 91 +4 +4 1012.9 1009.6
03 19.06 ЮВ 3 н/о н/о +3.3 +3.1 99 -1 -1 1012.8 1009.5
04 19.06 ЮВ 3 н/о н/о +3.1 +3.1 100 -1 -1 1012.6 1009.3
05 19.06 В 3 н/о н/о +3.3 +3.0 98 -1 -1 1012.3 1009.0
06 19.06 В 5 н/о н/о +3.4 +3.2 99 -2 -2 1012.0 1008.7
07 19.06 ЮВ 2 н/о н/о +2.8 +2.8 100 -1 -1 1012.2 1008.9
08 19.06 В 3 н/о н/о +5.0 +2.8 86 +2 +2 1011.9 1008.6
09 19.06 ЮВ 3 н/о н/о +3.2 +2.7 97 -1 -1 1011.6 1008.3
10 19.06 В 4 н/о н/о +3.9 +2.7 92 -0 -0 1011.8 1008.5
11 19.06 В 4 н/о н/о +3.7 +2.2 90 -1 -1 1012.0 1008.7
12 19.06 ЮВ 5 н/о н/о +5.3 +2.1 80 +1 +1 1011.5 1008.2
13 19.06 ЮВ 9 н/о н/о +6.4 +1.7 72 +1 +1 1011.2 1007.9
14 19.06 ЮВ 8 н/о н/о +5.3 +2.1 80 -0 -0 1011.2 1007.9
15 19.06 ЮВ 8 н/о н/о +7.0 +1.7 69 +2 +2 1011.2 1007.9
16 19.06 ЮВ 7 н/о н/о +7.5 +1.5 66 +3 +3 1011.1 1007.8
17 19.06 ЮВ 6 н/о н/о +8.3 +1.4 62 +5 +5 1011.1 1007.8
18 19.06 ЮВ 8 н/о н/о +7.0 +1.5 68 +2 +2 1011.0 1007.7
19 19.06 Ю 4 н/о н/о +9.1 +0.5 55 +7 +7 1011.8 1008.5
20 19.06 ЮВ 3 н/о н/о +9.0 +0.6 56 +7 +7 1011.4 1008.1
21 19.06 Ю 2 н/о н/о +9.1 +0.7 56 +8 +8 1011.3 1008.0
22 19.06 ЮВ 2 н/о н/о +7.8 +1.2 63 +6 +6 1011.2 1007.9
23 19.06 З 4 н/о н/о +6.9 +2.4 73 +4 +4 1011.3 1008.0
00 20.06 С 3 н/о н/о +6.6 +3.7 82 +4 +4 1011.2 1007.9
01 20.06 С 4 н/о н/о +7.3 +1.5 67 +4 +4 1011.1 1007.8
02 20.06 В 4 н/о н/о +7.1 +1.8 69 +4 +4 1010.8 1007.5
03 20.06 ЮВ 3 н/о н/о +6.5 +2.0 73 +4 +4 1010.8 1007.5
04 20.06 ЮВ 5 н/о н/о +5.7 +1.8 76 +2 +2 1010.4 1007.1
05 20.06 ЮВ 4 н/о н/о +6.0 +1.5 73 +3 +3 1010.5 1007.2
06 20.06 ЮВ 2 н/о н/о +5.4 +2.0 79 +3 +3 1010.2 1006.9
07 20.06 С 2 н/о н/о +6.1 +1.4 72 +4 +4 1010.3 1007.0
08 20.06 СЗ 2 н/о н/о +5.2 +1.7 78 +3 +3 1010.4 1007.1
09 20.06 В 1 н/о н/о +6.9 +1.8 70 +6 +6 1010.2 1006.9
10 20.06 ЮЗ 1 н/о н/о +5.5 +1.4 75 +6 +6 1010.3 1007.0
11 20.06 СЗ 2 н/о н/о +3.8 +3.3 97 +1 +1 1010.6 1007.3
12 20.06 СЗ 1 н/о н/о +3.8 +3.8 100 +2 +2 1010.7 1007.4
13 20.06 ЮВ 2 н/о н/о +3.6 +3.6 100 0 0 1010.6 1007.3
14 20.06 ЮВ 3 н/о н/о +3.8 +3.8 100 0 0 1011.1 1007.8
15 20.06 ЮВ 3 н/о н/о +4.1 +4.1 100 0 0 1010.8 1007.5
16 20.06 З 3 н/о н/о +2.9 +2.9 100 -1 -1 1011.2 1007.9
17 20.06 ЮЗ 1 н/о н/о +3.1 +3.1 100 +1 +1 1011.2 1007.9
18 20.06 СЗ 2 н/о н/о +3.4 +3.4 100 0 0 1011.5 1008.2
19 20.06 СЗ 3 н/о н/о +3.6 +3.6 100 -1 -1 1011.2 1007.9
20 20.06 С 5 н/о н/о +3.6 +3.6 100 -2 -2 1011.0 1007.7
21 20.06 СЗ 6 н/о н/о +3.7 +3.7 100 -2 -2 1010.7 1007.4
22 20.06 С 8 н/о н/о +3.6 +3.6 100 -3 -3 1010.3 1007.0
23 20.06 С 9 н/о н/о +3.5 +3.5 100 -4 -4 1010.0 1006.7
00 21.06 С 10 н/о н/о +3.1 +3.1 100 -4 -4 1010.0 1006.7
01 21.06 С 4 н/о н/о +3.4 +3.4 100 -2 -2 1010.0 1006.7
02 21.06 В 4 н/о н/о +3.5 +3.5 100 -1 -1 1009.6 1006.3
03 21.06 ЮЗ 1 н/о н/о +3.1 +3.1 100 +1 +1 1009.6 1006.3
04 21.06 С 2 н/о н/о +3.3 +3.3 100 +1 +1 1009.5 1006.2
05 21.06 ЮВ 1 н/о н/о +3.1 +3.1 100 +1 +1 1009.1 1005.8
06 21.06 С 4 н/о н/о +2.7 +2.7 100 -2 -2 1008.8 1005.5
07 21.06 С 5 н/о н/о +2.9 +2.9 100 -3 -3 1009.0 1005.7
08 21.06 С 4 н/о н/о +3.1 +3.1 100 -2 -2 1009.0 1005.7
09 21.06 С 3 н/о н/о +3.5 +3.5 100 -1 -1 1008.8 1005.5
10 21.06 В 2 н/о н/о +2.7 +2.7 100 -1 -1 1008.9 1005.6
11 21.06 СВ 1 н/о н/о +3.6 +3.6 100 +2 +2 1008.8 1005.5
12 21.06 СЗ 2 н/о н/о +3.2 +3.2 100 +1 +1 1008.6 1005.3
13 21.06 СЗ 3 н/о н/о +3.3 +3.3 100 -1 -1 1008.6 1005.3
14 21.06 С 5 н/о н/о +3.7 +3.7 100 -2 -2 1008.5 1005.2
15 21.06 В 3 н/о н/о +3.2 +3.2 100 -1 -1 1008.6 1005.3
16 21.06 В 1 н/о н/о +3.6 +3.6 100 +2 +2 1008.6 1005.3
17 21.06 В 1 н/о н/о +3.6 +3.6 100 +2 +2 1008.4 1005.1
18 21.06 СЗ 2 н/о н/о +3.6 +3.6 100 0 0 1008.2 1004.9
19 21.06 С 4 н/о н/о +3.8 +3.8 100 -1 -1 1008.1 1004.8
20 21.06 СЗ 3 н/о н/о +3.3 +3.3 100 -1 -1 1008.5 1005.2
21 21.06 СЗ 5 н/о н/о +2.6 +1.9 95 -3 -3 1008.5 1005.2
22 21.06 С 5 н/о н/о +2.4 +2.2 99 -3 -3 1008.6 1005.3
23 21.06 С 4 н/о н/о +2.0 +2.0 100 -3 -3 1008.6 1005.3
00 22.06 С 4 н/о н/о +2.0 +2.0 100 -3 -3 1008.3 1005.0
01 22.06 С 4 н/о н/о +1.8 +1.8 100 -4 -4 1008.2 1004.9
02 22.06 С 3 н/о н/о +2.6 +1.4 92 -2 -2 1007.8 1004.5
03 22.06 С 4 н/о н/о +2.3 +1.7 96 -3 -3 1007.5 1004.2
04 22.06 СЗ 4 н/о н/о +2.2 +2.0 99 -3 -3 1007.0 1003.7
05 22.06 СЗ 3 н/о н/о +2.2 +2.2 100 -2 -2 1006.5 1003.2
06 22.06 З 1 н/о н/о +1.9 +1.9 100 +1 +1 1006.4 1003.1
07 22.06 СЗ 2 н/о н/о +2.2 +2.2 100 -1 -1 1006.4 1003.1
08 22.06 СЗ 3 н/о н/о +2.3 +2.3 100 -2 -2 1006.3 1003.0
09 22.06 СЗ 1 н/о н/о +2.3 +2.3 100 0 0 1006.3 1003.0
10 22.06 С 1 н/о н/о +2.0 +2.0 100 +1 +1 1006.4 1003.1
11 22.06 СЗ 3 н/о н/о +2.3 +2.3 100 -2 -2 1006.8 1003.5
12 22.06 СЗ 7 н/о н/о +1.8 +1.8 100 -5 -5 1007.2 1003.9
13 22.06 СЗ 6 н/о н/о +1.7 +1.3 97 -5 -5 1007.8 1004.5
14 22.06 СЗ 4 н/о н/о +1.8 +1.2 96 -4 -4 1008.5 1005.2
15 22.06 СЗ 4 н/о н/о +2.1 +1.4 95 -3 -3 1008.8 1005.5
16 22.06 З 4 н/о н/о +2.1 +0.9 92 -3 -3 1009.2 1005.9
17 22.06 З 4 н/о н/о +2.2 +0.7 90 -3 -3 1009.6 1006.3
18 22.06 З 4 н/о н/о +2.3 +0.3 87 -2 -2 1010.1 1006.8
19 22.06 З 3 н/о н/о +2.0 +0.5 90 -2 -2 1010.8 1007.5
20 22.06 З 3 н/о н/о +2.4 +0.8 89 -1 -1 1011.3 1008.0
21 22.06 З 3 н/о н/о +3.0 +0.9 86 -1 -1 1011.8 1008.5
22 22.06 СЗ 3 н/о н/о +2.8 0.0 82 -1 -1 1012.1 1008.8
23 22.06 З 2 н/о н/о +2.8 -0.1 81 0 0 1012.5 1009.2
00 23.06 Ю 1 н/о н/о +2.5 -0.6 80 +1 +1 1012.7 1009.4
01 23.06 ЮВ 2 н/о н/о +2.2 -0.1 85 -0 -0 1012.9 1009.6
02 23.06 ЮВ 2 н/о н/о +2.3 +0.7 89 -1 -1 1012.9 1009.6
03 23.06 СВ 2 н/о н/о +2.9 +0.8 86 0 0 1012.9 1009.6
04 23.06 С 2 н/о н/о +2.6 +1.1 90 0 0 1012.6 1009.3
05 23.06 З 1 н/о н/о +2.7 +1.2 90 +1 +1 1012.8 1009.5
06 23.06 ЮВ 8 н/о н/о +2.9 +1.7 92 -4 -4 1012.7 1009.4
07 23.06 Ю 6 н/о н/о +2.4 +2.0 97 -4 -4 1013.2 1009.9
08 23.06 Ю 3 н/о н/о +2.6 +1.9 95 -2 -2 1013.3 1010.0
09 23.06 ЮЗ 2 н/о н/о +2.4 +1.2 92 -0 -0 1013.3 1010.0
10 23.06 Ю 2 н/о н/о +2.7 +1.1 89 0 0 1013.1 1009.8
11 23.06 ЮВ 4 н/о н/о +3.3 +1.2 86 -1 -1 1013.0 1009.7
12 23.06 ЮВ 3 н/о н/о +3.5 +1.2 85 0 0 1013.0 1009.7
13 23.06 ЮВ 3 н/о н/о +3.7 +1.2 84 -0 -0 1013.4 1010.1
14 23.06 ЮВ 4 н/о н/о +4.3 +1.5 82 0 0 1013.6 1010.3
15 23.06 ЮВ 6 н/о н/о +5.0 +1.6 79 0 0 1013.4 1010.1
16 23.06 ЮВ 5 н/о н/о +5.8 +1.3 73 +2 +2 1013.5 1010.2
17 23.06 ЮВ 5 н/о н/о +6.0 +1.1 71 +2 +2 1013.8 1010.5
18 23.06 ЮВ 4 н/о н/о +6.2 +0.7 68 +3 +3 1013.9 1010.6
19 23.06 З 2 н/о н/о +5.7 +1.0 72 +3 +3 1014.1 1010.8
20 23.06 СЗ 3 н/о н/о +4.8 +2.3 84 +2 +2 1014.6 1011.3
21 23.06 С 3 н/о н/о +4.8 +2.5 85 +1 +1 1014.9 1011.6
22 23.06 СЗ 2 н/о н/о +5.0 +2.3 83 +2 +2 1015.1 1011.8
23 23.06 СЗ 2 н/о н/о +4.7 +2.5 86 +3 +3 1015.3 1012.0
00 24.06 З 3 н/о н/о +3.8 +3.0 95 -0 -0 1015.5 1012.2
01 24.06 С 3 н/о н/о +3.8 +3.0 95 0 0 1015.6 1012.3
02 24.06 С 3 н/о н/о +3.9 +3.0 94 -0 -0 1015.2 1011.9
03 24.06 С 3 н/о н/о +3.2 +2.9 98 -1 -1 1015.3 1012.0
04 24.06 СЗ 2 н/о н/о +2.7 +2.7 100 -1 -1 1015.1 1011.8
05 24.06 СЗ 2 н/о н/о +2.0 +2.0 100 -1 -1 1014.7 1011.4
06 24.06 З 3 н/о н/о +1.6 +1.6 100 -3 -3 1014.8 1011.5
07 24.06 СЗ 3 н/о н/о +1.2 +1.2 100 -4 -4 1014.8 1011.5
08 24.06 С 2 н/о н/о +1.5 +1.5 100 -2 -2 1014.8 1011.5
09 24.06 СЗ 3 н/о н/о +1.3 +1.3 100 -3 -3 1014.5 1011.2
10 24.06 С 4 н/о н/о +1.2 +1.2 100 -4 -4 1014.1 1010.8
11 24.06 СЗ 5 н/о н/о +1.7 +1.7 100 -4 -4 1013.9 1010.6
12 24.06 СЗ 5 н/о н/о +1.6 +1.6 100 -4 -4 1013.7 1010.4
13 24.06 СЗ 4 н/о н/о +2.2 +2.2 100 -3 -3 1013.5 1010.2
14 24.06 СЗ 5 н/о н/о +1.6 +1.6 100 -4 -4 1013.4 1010.1
15 24.06 СЗ 5 н/о н/о +1.5 +1.5 100 -5 -5 1013.3 1010.0
16 24.06 СЗ 4 н/о н/о +2.2 +2.2 100 -3 -3 1013.2 1009.9
17 24.06 СЗ 5 н/о н/о +1.8 +1.8 100 -4 -4 1013.1 1009.8
18 24.06 СЗ 5 н/о н/о +1.4 +1.4 100 -4 -4 1013.2 1009.9
19 24.06 СЗ 5 н/о н/о +1.0 +1.0 100 -5 -5 1013.4 1010.1
20 24.06 СЗ 6 н/о н/о +1.4 +1.4 100 -5 -5 1013.7 1010.4
21 24.06 СЗ 6 н/о н/о +1.7 +1.7 100 -5 -5 1014.0 1010.7
22 24.06 СЗ 5 н/о н/о +1.8 +1.8 100 -4 -4 1014.2 1010.9
23 24.06 С 4 н/о н/о +1.9 +1.9 100 -3 -3 1014.5 1011.2
00 25.06 СЗ 4 н/о н/о +1.3 +1.3 100 -4 -4 1014.8 1011.5
01 25.06 СЗ 2 н/о н/о +1.5 +1.5 100 -2 -2 1015.1 1011.8

 

Местоположение метеостанции Nuussuaataa (Гренландия): широта 70.68 долгота -54.61 высота над уровнем моря 27 м.

В архиве по умолчанию представлена погода в Nuussuaataa за последнюю неделю. Архивные данные за месяц целиком и за предыдущие месяцы, начиная с января 2011 года, Вы можете получить, выбрав интересующий диапазон дат из раскрывающегося списка и нажав кнопку "Ввод!".


*Определитесь, кто Вы:
робот инопланетянин человек

Внимание! Время в таблицах - всемирное. Для получения местного времени необходимо прибавить поправку, которая равна -3 ч.

Смотрите также архив погоды в соседних городах и на ближайших метеорологических станциях:

Погода Qaarsut Mittarfia (Гренландия) (70 км)
Погода в Ilulissat (Гренландия) (210 км)
Погода в Aasiaat Mittarfia (Гренландия) (229 км)
Погода в Aasiaat (Гренландия) (230 км)
Погода в Mittarfik Upernavik (Гренландия) (239 км)
Погода в Kitsissut (Гренландия) (324 км)
Погода в Kitsissorsuit (Гренландия) (388 км)
Погода в Sisimiut Mittarfia (Гренландия) (416 км)
Погода в Kangerlussuaq (Гренландия) (436 км)
Погода на Острове Бротон (Нунавут, Канада) (504 км)

Пояснения к столбцам:

Ветер - указаны скорость ветра в м/с - средняя за 10 мин, порывы в срок и между сроками (в фигурных скобках) и направление, откуда дует ветер: С - северный, СВ - северо-восточный, В - восточный, ЮВ - юго-восточный, Ю - южный, ЮЗ - юго-западный, З - западный, СЗ - северо-западный.
Видимость - горизонтальная дальность видимости в метрах или километрах. При видимости от 1 до 10 км при отсутствии осадков обычно наблюдается дымка, при ухудшении видимости до 1 км и менее - туман. В сухую погоду видимость может ухудшаться дымом, пылью или мглою.
Явления - указаны атмосферные явления, наблюдавшиеся в срок или в последний час перед сроком; фигурными скобками обозначены явления, наблюдавшиеся между сроками (за 1-3 часа до срока); квадратными скобками обозначены град или гололедные отложения с указанием их диаметра в мм.
Облачность - указаны через наклонную черту общая и нижняя облачность в баллах и высота нижней границы облаков в метрах; квадратными скобками обозначены формы облаков: Ci - перистые, Cs - перисто-слоистые, Cc - перисто-кучевые, Ac - высококучевые, As - высокослоистые, Sc - слоисто-кучевые, Ns - слоисто-дождевые, Cu - кучевые, Cb - кучево-дождевые. Подробнее классификацию облаков см. в Атласе облаков (PDF).
T - Температура воздуха - температура, измеренная на высоте 2 м над землей.
Td - Температура точки росы - температура, при понижении до которой содержащийся в воздухе водяной пар достигнет насыщения.
f - Относительная влажность воздуха - влажноcть воздуха, измеренная на высоте 2 м над землей.
Te - Эффективная температура - температура, которую ощущает одетый по сезону человек в тени. Характеристика душности погоды. При расчете учитывается влияние влажности воздуха и скорости ветра на теплоощущения человека.
Tes - Эффективная температура на солнце - температура, которую ощущает человек, с поправкой на солнечный нагрев. Характеристика знойности погоды. Зависит от высоты солнца над горизонтом, облачности и скорости ветра. Ночью, в пасмурную погоду, а также при ветре 12 м/с и более поправка равна нулю.
P - Атмосферное давление - приведенное к уровню моря атмосферное давление.
Po - Атмосферное давление - измеренное на уровне метеостанции атмосферное давление.
Tmin - Минимальная температура - минимум температуры воздуха на высоте 2 м над землей.
Tmax - Максимальная температура - максимум температуры воздуха на высоте 2 м над землей.
R - Количество осадков - Количество выпавших осадков за период времени, мм. При наведении курсора мыши на число - период времени, за который выпало указанное количество осадков.
R24 - Количество осадков - Количество выпавших осадков за 24 часа, мм.
S - Снежный покров - Высота снежного покрова, см. При наведении курсора мыши на число - состояние снежного покрова и степень покрытия местности в баллах.